Tillbaka till svenska Fidonet
English   Information   Debug  
FILM   0/18
FNEWS_PUBLISH   4926
FN_SYSOP   42201
FN_SYSOP_OLD1   71952
FTP_FIDO   0/2
FTSC_PUBLIC   0/13972
FUNNY   0/4886
GENEALOGY.EUR   0/71
GET_INFO   105
GOLDED   0/408
HAM   3797/16660
HOLYSMOKE   0/6791
HOT_SITES   0/1
HTMLEDIT   0/71
HUB203   466
HUB_100   264
HUB_400   39
HUMOR   0/29
IC   0/2851
INTERNET   0/424
INTERUSER   0/3
IP_CONNECT   719
JAMNNTPD   0/233
JAMTLAND   0/47
KATTY_KORNER   0/41
LAN   0/16
LINUX-USER   0/19
LINUXHELP   0/1155
LINUX   0/22300
LINUX_BBS   0/957
mail   18.68
mail_fore_ok   249
MENSA   0/341
MODERATOR   0/102
MONTE   0/992
MOSCOW_OKLAHOMA   0/1245
MUFFIN   0/783
MUSIC   0/321
N203_STAT   938
N203_SYSCHAT   313
NET203   321
NET204   69
NET_DEV   0/10
NORD.ADMIN   0/101
NORD.CHAT   0/2572
NORD.FIDONET   189
NORD.HARDWARE   0/28
NORD.KULTUR   0/114
NORD.PROG   0/32
NORD.SOFTWARE   0/88
NORD.TEKNIK   0/58
NORD   0/453
OCCULT_CHAT   0/93
OS2BBS   0/787
OS2DOSBBS   0/580
OS2HW   0/42
OS2INET   0/37
OS2LAN   0/134
OS2PROG   0/36
OS2REXX   0/113
OS2USER-L   207
OS2   0/4830
OSDEBATE   3753/18996
PASCAL   0/490
PERL   0/457
PHP   0/45
POINTS   0/405
POLITICS   0/29554
POL_INC   0/14731
PSION   103
R20_ADMIN   1133
R20_AMATORRADIO   0/2
R20_BEST_OF_FIDONET   16
R20_CHAT   0/896
R20_DEPP   0/3
R20_DEV   400
R20_ECHO2   1830
R20_ECHOPRES   0/35
R20_ESTAT   0/719
R20_FIDONETPROG...
...RAM.MYPOINT
  0/2
R20_FIDONETPROGRAM   0/22
R20_FIDONET   0/248
R20_FILEFIND   0/24
R20_FILEFOUND   0/22
R20_HIFI   0/3
R20_INFO2   3723
R20_INTERNET   0/12940
R20_INTRESSE   0/60
R20_INTR_KOM   0/99
R20_KANDIDAT.CHAT   42
R20_KANDIDAT   28
R20_KOM_DEV   112
R20_KONTROLL   0/13360
R20_KORSET   0/18
R20_LOKALTRAFIK   0/24
R20_MODERATOR   0/1852
R20_NC   76
R20_NET200   245
R20_NETWORK.OTH...
...ERNETS
  0/13
R20_OPERATIVSYS...
...TEM.LINUX
  0/44
R20_PROGRAMVAROR   0/1
R20_REC2NEC   534
R20_SFOSM   0/341
R20_SF   0/108
R20_SPRAK.ENGLISH   0/1
R20_SQUISH   107
R20_TEST   2
R20_WORST_OF_FIDONET   20
RAR   0/9
RA_MULTI   106
RA_UTIL   0/162
REGCON.EUR   0/2068
REGCON   0/13
SCIENCE   0/1206
SF   0/239
SHAREWARE_SUPPORT   0/5146
SHAREWRE   0/14
SIMPSONS   0/169
STATS_OLD1   0/2539.065
STATS_OLD2   0/2530
STATS_OLD3   0/2395.095
STATS_OLD4   0/1692.25
SURVIVOR   0/495
SYSOPS_CORNER   0/3
SYSOP   0/84
TAGLINES   0/112
TEAMOS2   0/4530
TECH   0/2617
TEST.444   0/105
TRAPDOOR   0/19
TREK   0/755
TUB   0/290
UFO   0/40
UNIX   0/1316
USA_EURLINK   0/102
USR_MODEMS   0/1
VATICAN   0/2740
VIETNAM_VETS   0/14
VIRUS   0/378
VIRUS_INFO   0/201
VISUAL_BASIC   0/473
WHITEHOUSE   0/5187
WIN2000   0/101
WIN32   0/30
WIN95   0/4291
WIN95_OLD1   0/70272
WINDOWS   0/1517
WWB_SYSOP   0/419
WWB_TECH   0/810
ZCC-PUBLIC   0/1
ZEC   4

 
4DOS   0/134
ABORTION   0/7
ALASKA_CHAT   0/506
ALLFIX_FILE   0/1313
ALLFIX_FILE_OLD1   0/7997
ALT_DOS   0/152
AMATEUR_RADIO   0/1039
AMIGASALE   0/14
AMIGA   0/331
AMIGA_INT   0/1
AMIGA_PROG   0/20
AMIGA_SYSOP   0/26
ANIME   0/15
ARGUS   0/924
ASCII_ART   0/340
ASIAN_LINK   0/651
ASTRONOMY   0/417
AUDIO   0/92
AUTOMOBILE_RACING   0/105
BABYLON5   0/17862
BAG   135
BATPOWER   0/361
BBBS.ENGLISH   0/382
BBSLAW   0/109
BBS_ADS   0/5290
BBS_INTERNET   0/507
BIBLE   0/3563
BINKD   0/1119
BINKLEY   0/215
BLUEWAVE   0/2173
CABLE_MODEMS   0/25
CBM   0/46
CDRECORD   0/66
CDROM   0/20
CLASSIC_COMPUTER   0/378
COMICS   0/15
CONSPRCY   0/899
COOKING   41444
COOKING_OLD1   0/24719
COOKING_OLD2   0/40862
COOKING_OLD3   0/37489
COOKING_OLD4   15678/35496
COOKING_OLD5   9370
C_ECHO   0/189
C_PLUSPLUS   0/31
DIRTY_DOZEN   0/201
DOORGAMES   0/2285
DOS_INTERNET   0/196
duplikat   6102
ECHOLIST   0/18295
EC_SUPPORT   0/318
ELECTRONICS   0/359
ELEKTRONIK.GER   1534
ENET.LINGUISTIC   0/13
ENET.POLITICS   0/4
ENET.SOFT   0/11701
ENET.SYSOP   34296
ENET.TALKS   0/32
ENGLISH_TUTOR   0/2000
EVOLUTION   0/1335
FDECHO   0/217
FDN_ANNOUNCE   0/7068
FIDONEWS   25062
FIDONEWS_OLD1   0/49742
FIDONEWS_OLD2   0/35949
FIDONEWS_OLD3   0/30874
FIDONEWS_OLD4   0/37224
FIDO_SYSOP   12922
FIDO_UTIL   0/180
FILEFIND   0/209
FILEGATE   0/212
Möte HAM, 16660 texter
 lista första sista föregående nästa
Text 4548, 908 rader
Skriven 2011-06-17 00:31:22 av Amsat List (1:323/120.0)
Ärende: [keps]  orb11167.amsa
=============================
[keps]  orb11167.amsa

Return-Path: <keps-bounces@amsat.org>
X-Rcpt: craig.healy@chowda.com
X-UIDL: 1308283689.5627

SB KEPS @ AMSAT  $ORB11167.O
Orbital Elements  11167.OSCAR

HR AMSAT ORBITAL ELEMENTS FOR OSCAR SATELLITES
FROM WA5QGD FORT WORTH,TX June 16, 2011
Send Subscribe/unsubscribe to KEPS at http://www.amsat.org/mailman/listinfo/kep
BID: ORB11167.O
TO ALL RADIO AMATEURS BT

Satellite: FO-29
Catalog number: 24278
Epoch time:      11166.42788216
Element set:     596
Inclination:      098.5430 deg
RA of node:       310.7884 deg
Eccentricity:    0.0349589
Arg of perigee:   261.7692 deg
Mean anomaly:     094.3668 deg
Mean motion:   13.52962444 rev/day
Decay rate:       1.00e-06 rev/day^2
Epoch rev:           73222
Checksum:              341

Satellite: SO-33
Catalog number: 25509
Epoch time:      11166.62634033
Element set:    0990
Inclination:      031.4347 deg
RA of node:       253.1448 deg
Eccentricity:    0.0354280
Arg of perigee:   227.9976 deg
Mean anomaly:     128.9947 deg
Mean motion:   14.28415695 rev/day
Decay rate:       3.08e-06 rev/day^2
Epoch rev:           66005
Checksum:              323

Satellite: AO-07
Catalog number: 07530
Epoch time:      11167.03879067
Element set:     104
Inclination:      101.3913 deg
RA of node:       173.6251 deg
Eccentricity:    0.0011643
Arg of perigee:   282.7758 deg
Mean anomaly:     077.2019 deg
Mean motion:   12.53582711 rev/day
Decay rate:       -2.7e-07 rev/day^2
Epoch rev:           67404
Checksum:              283

Satellite: VO-52
Catalog number: 28650
Epoch time:      11167.68993629
Element set:     822
Inclination:      097.6407 deg
RA of node:       210.8432 deg
Eccentricity:    0.0026930
Arg of perigee:   160.5269 deg
Mean anomaly:     199.7003 deg
Mean motion:   14.82086480 rev/day
Decay rate:       6.56e-06 rev/day^2
Epoch rev:           33067
Checksum:              326

Satellite: RS-22
Catalog number: 27939
Epoch time:      11167.74437911
Element set:     359
Inclination:      097.8476 deg
RA of node:       021.7646 deg
Eccentricity:    0.0013489
Arg of perigee:   352.1722 deg
Mean anomaly:     007.9269 deg
Mean motion:   14.63597270 rev/day
Decay rate:       1.62e-06 rev/day^2
Epoch rev:           41227
Checksum:              329

Satellite: HO-68
Catalog number: 36122
Epoch time:      11167.85862867
Element set:     474
Inclination:      100.4152 deg
RA of node:       228.6751 deg
Eccentricity:    0.0007255
Arg of perigee:   224.3312 deg
Mean anomaly:     135.7210 deg
Mean motion:   13.16286727 rev/day
Decay rate:       -4.4e-07 rev/day^2
Epoch rev:            7219
Checksum:              290

Satellite: SO-67
Catalog number: 35870
Epoch time:      11167.95305606
Element set:     941
Inclination:      097.2812 deg
RA of node:       211.3205 deg
Eccentricity:    0.0003568
Arg of perigee:   048.7124 deg
Mean anomaly:     035.2249 deg
Mean motion:   15.20795513 rev/day
Decay rate:      1.430e-05 rev/day^2
Epoch rev:            9690
Checksum:              295

/EX
SB KEPS @ AMSAT  $ORB11167.D
Orbital Elements  11167.MICROS

HR AMSAT ORBITAL ELEMENTS FOR THE MICROSATS
FROM WA5QGD FORT WORTH,TX June 16, 2011
Send Subscribe/unsubscribe to KEPS at http://www.amsat.org/mailman/listinfo/kep
BID: ORB11167.D
TO ALL RADIO AMATEURS BT

Satellite: GO-32
Catalog number: 25397
Epoch time:      11166.50604404
Element set:    0504
Inclination:      098.3245 deg
RA of node:       159.1574 deg
Eccentricity:    0.0000421
Arg of perigee:   325.6564 deg
Mean anomaly:     034.4582 deg
Mean motion:   14.23211747 rev/day
Decay rate:       1.56e-06 rev/day^2
Epoch rev:           67172
Checksum:              282

Satellite: CO-55
Catalog number: 27844
Epoch time:      11166.55717514
Element set:    0132
Inclination:      098.7053 deg
RA of node:       175.2814 deg
Eccentricity:    0.0009181
Arg of perigee:   199.6094 deg
Mean anomaly:     160.4753 deg
Mean motion:   14.20817002 rev/day
Decay rate:       1.38e-06 rev/day^2
Epoch rev:           41268
Checksum:              302

Satellite: UO-11
Catalog number: 14781
Epoch time:      11166.71918911
Element set:     575
Inclination:      098.0064 deg
RA of node:       223.4352 deg
Eccentricity:    0.0009665
Arg of perigee:   137.5923 deg
Mean anomaly:     222.6035 deg
Mean motion:   14.79983879 rev/day
Decay rate:       1.80e-06 rev/day^2
Epoch rev:           46557
Checksum:              327

Satellite: STUDSAT
Catalog number: 36801
Epoch time:      11166.72580930
Element set:    0198
Inclination:      098.1066 deg
RA of node:       234.8291 deg
Eccentricity:    0.0012453
Arg of perigee:   272.3348 deg
Mean anomaly:     087.6425 deg
Mean motion:   14.80672053 rev/day
Decay rate:      1.806e-05 rev/day^2
Epoch rev:           05008
Checksum:              292

Satellite: AO-27
Catalog number: 22825
Epoch time:      11166.89029633
Element set:     842
Inclination:      098.5315 deg
RA of node:       111.3717 deg
Eccentricity:    0.0007551
Arg of perigee:   280.4623 deg
Mean anomaly:     079.5700 deg
Mean motion:   14.29350624 rev/day
Decay rate:       -5.4e-07 rev/day^2
Epoch rev:           92400
Checksum:              292

Satellite: SO-50
Catalog number: 27607
Epoch time:      11166.91027570
Element set:     491
Inclination:      064.5587 deg
RA of node:       331.5544 deg
Eccentricity:    0.0072228
Arg of perigee:   321.4571 deg
Mean anomaly:     038.1400 deg
Mean motion:   14.71758622 rev/day
Decay rate:       1.53e-06 rev/day^2
Epoch rev:           45590
Checksum:              292

